Regional Weather Roundup
Issued by NWS

Home | Current Version | Previous Version | Text Only | Print | Product List | Glossary On
Versions: 1 2 3 4 5 6 7 8 9 10 11 12 13 14 15 16 17 18 19 20 21 22 23 24 25 26 27 28 29 30 31 32 33 34 35 36 37 38 39 40 41 42 43 44 45 46 47 48 49 50
268
ASUS44 KJAN 230210
RWRMS

MISSISSIPPI HOURLY WEATHER ROUNDUP
NATIONAL WEATHER SERVICE JACKSON MS
900 PM CDT WED OCT 22 2014

NOTE: "FAIR: INDICATES FEW OR NO CLOUDS BELOW 12,000 FEET WITH NO
SIGNIFICANT WEATHER AND/OR OBSTRUCTIONS TO VISIBILITY.

MSZ001>002-007>008-010>013-018>021-025>028-034>036-230300-
NORTHWEST MISSISSIPPI

CITY           SKY/WX    TMP DP  RH WIND       PRES   REMARKS
CLARKSDALE     FAIR      55  46  71 NE6       30.17S
CLEVELAND      FAIR      54  48  80 NE3       30.16R
GREENWOOD      CLEAR     53  46  77 NE5       30.15S
GREENVILLE     CLEAR     55  44  66 NE7       30.14S
GRENADA          N/A    N/A N/A N/A MISG        N/A
OLIVE BRANCH   CLEAR     52  46  82 CALM      30.19R
OXFORD         FAIR      46  45  93 CALM      30.19S
TUNICA         CLEAR     52  46  82 NE6       30.18S
$$

MSZ003>006-009-014>017-022>024-029>033-037>039-230300-
NORTHEAST MISSISSIPPI

CITY           SKY/WX    TMP DP  RH WIND       PRES   REMARKS
COLUMBUS AFB   CLEAR     50  47  89 NW1       30.16R
CORINTH        FAIR      50  45  81 CALM      30.19S
GOLDN TRIANGLE CLEAR     54  43  66 N7        30.15S
STARKVILLE     FAIR      50  46  87 N3        30.15S
TUPELO         CLEAR     52  45  77 CALM      30.18R
$$

MSZ040-058-230300-
CENTRAL MISSISSIPPI

CITY           SKY/WX    TMP DP  RH WIND       PRES   REMARKS
JACKSON INTL   CLEAR     60  45  57 NE6       30.12R
JACKSON HAWKNS CLEAR     62  45  53 NE5       30.12R
MERIDIAN KEY   CLEAR     50  46  86 CALM      30.13R
MERIDIAN NAS   CLEAR     56  45  66 N6        30.13S
RAYMOND        FAIR      55  50  82 CALM      30.12R
VICKSBURG      CLEAR     61  48  62 NE9       30.12S
$$

MSZ059>079-230300-
SOUTH MISSISSIPPI

CITY           SKY/WX    TMP DP  RH WIND       PRES   REMARKS
BROOKHAVEN     FAIR      61  50  67 N6        30.11S
COLUMBIA         N/A    N/A N/A N/A MISG        N/A
HATTIESBURG    CLEAR     62  49  62 NE6       30.10R
MCCOMB         CLEAR     63  50  62 N5        30.09R
NATCHEZ        CLEAR     57  52  82 CALM      30.11R
PINE BELT      CLEAR     59  45  58 NE6       30.11S
$$

MSZ080>082-230300-
COASTAL MISSISSIPPI

CITY           SKY/WX    TMP DP  RH WIND       PRES   REMARKS
BAY ST LOUIS   CLEAR     64  50  59 CALM      30.07
BILOXI         CLEAR     64  52  65 NE8       30.06S
PASCAGOULA     CLEAR     60  49  66 NE6       30.07R
GULFPORT       CLEAR     66  50  56 NE6       30.06R
$$



USA.gov is the U.S. government's official web portal to all federal, state and local government web resources and services.